{"data":{"norad_id":52196,"intl_designator":"2022-034B","name":"GLOBAL-18","alt_names":[],"object_type":"PAYLOAD","status":"ACTIVE","operator":null,"country":"US","launch_date":"2022-04-02","launch_site_code":"RLLB","launch_vehicle":null,"mission":null,"orbit_class":"UNKNOWN","rcs_meters":null,"size_class":null,"mass_kg":null,"dimensions":null,"purposes":[],"wikipedia_slug":null,"has_3d_model":false,"image_url":null,"decayed_at":null,"tle_current":{"epoch":"2026-05-24T21:56:13.212384Z","epoch_age_seconds":78948,"freshness":"FRESH","line1":"1 52196U 22034B   26144.91404181  .00018863  00000+0  39920-3 0  9990","line2":"2 52196  52.9833   7.7784 0004722 165.0297 195.0849 15.45174250233360","mean_motion":15.4517425,"eccentricity":0.0004722,"inclination_deg":52.9833,"raan_deg":7.7784,"arg_perigee_deg":165.0297,"mean_anomaly_deg":195.0849,"bstar":0.0003992,"rev_number":23336,"period_min":93.193372850991,"perigee_km":427.6509098472,"apogee_km":434.08133239478,"semimajor_km":6809.003121121,"source":"CELESTRAK","updated_at":"2026-05-25T13:37:57.650565Z"}}}